[[[{"header":{"parameterUnit":"kt","parameterCategory":2,"dx":1,"dy":1,"la1":30.253999710083008,"la2":30.299108505249023,"lo1":-89.0895004272461,"lo2":-89.04439544677734,"nx":28,"ny":28,"refTime":"2022-10-03T21:00:00:Z","depth":0,"parameterNumber":1,"parameterNumberName":"U-component_of_WINDS"},"data":[-6.1574,-6.1706,-6.1673,-6.1809,-6.1802,-6.1889,-6.1909,-6.1932,-6.1942,-6.2041,-6.2092,-6.2072,-6.2068,-6.2121,-6.2174,-6.2164,-6.2188,-6.2259,-6.2234,-6.1947,-6.1905,-6.1865,-6.1831,-6.2265,-6.2266,-6.2535,-6.2537,-6.2539,-6.1367,-6.1362,-6.1424,-6.1462,-6.1515,-6.1427,-6.145,-6.1499,-6.1579,-6.1592,-6.1641,-6.1725,-6.1787,-6.1758,-6.1812,-6.1872,-6.1833,-6.1889,-6.1883,-6.1883,-6.1576,-6.154,-6.192,-6.192,-6.192,-6.192,-6.192,-6.192,-6.098,-6.1061,-6.1064,-6.1131,-6.1141,-6.1166,-6.1237,-6.121,-6.127,-6.1323,-6.1271,-6.1361,-6.1366,-6.1414,-6.1422,-6.149,-6.1421,-6.1472,-6.1484,-6.1498,-6.1517,-6.1131,-6.1498,-6.1497,-6.1496,-6.1495,-6.1494,0,-6.0686,-6.0652,-6.0709,-6.0757,-6.0804,-6.0838,-6.0862,-6.0906,-6.0822,-6.0875,-6.0949,-6.0986,-6.1059,-6.1124,-6.1166,-6.1163,-6.1075,-6.1063,-6.1097,-6.1122,-6.114,-6.113,-6.0629,-6.1052,-6.1048,-6.1045,-6.1043,-6.1041,-6.0291,-6.039,-6.0376,-6.0421,-6.0426,-6.05,-6.0536,-6.0454,-6.0497,-6.0515,-6.0591,-6.0655,-6.0702,-6.0826,-6.0792,-6.0846,-6.0803,-6.0968,-6.081,-6.0831,-6.0803,-6.0797,-6.0806,-6.0999,-6.1005,-6.1009,-6.1013,0,-6.0072,-6.0016,-6.0157,-6.0133,-6.013,-6.0238,-6.0217,-6.0294,-6.0258,-6.0359,-6.0378,-6.0322,-6.0396,-6.0334,-6.0406,-6.0372,-6.0547,-6.0505,-6.0544,-6.0532,-6.0672,-6.0659,-6.114,-6.1198,-6.0749,-6.0753,-6.0757,0,-5.9712,-5.9845,-5.9752,-5.9838,-5.9982,-5.9895,-6.0041,-6.0024,-6.0026,-6.0105,-5.9995,-6.0071,-5.998,-6.0048,-5.9997,-6.0129,-6.0143,-6.0123,-6.0108,-6.0133,-6.0135,-6.0152,-6.0131,-6.0071,-6.0069,-6.0067,-6.0065,0,-5.9374,-5.948,-5.9618,-5.9632,-5.962,-5.9687,-5.9684,-5.9686,-5.9722,-5.976,-5.9782,-5.9833,-5.9861,-5.9901,-5.9835,-5.9731,-5.9996,-5.9838,-5.9976,-5.9978,-6.0036,-6.0033,-6.0476,-6.0062,-6.0061,-6.006,-6.0059,0,-5.9073,-5.9113,-5.9322,-5.9307,-5.9339,-5.943,-5.9472,-5.9536,-5.9546,-5.9519,-5.9548,-5.9466,-5.9577,-5.9425,-5.9576,-5.9458,-5.9492,-5.9484,-5.9492,-5.9497,-5.9328,-5.9584,-6.0014,-6.0055,-5.9503,-5.9499,-5.9495,0,-5.87,-5.8896,-5.8821,-5.9022,-5.9103,-5.8972,-5.9072,-5.9083,-5.9056,-5.912,-5.9088,-5.9163,-5.9037,-5.9051,-5.9134,-5.9105,-5.9258,-5.9082,-5.9176,-5.918,-5.9175,-5.957,-5.9648,-5.9927,-5.9435,-5.9441,-5.9445,0,-5.8403,-5.8385,-5.8426,-5.8438,-5.8439,-5.8507,-5.8622,-5.8676,-5.8723,-5.8748,-5.8841,-5.8945,-5.8853,-5.8879,-5.8817,-5.8907,-5.9152,-5.8796,-5.8795,-5.8861,-5.9399,-5.9473,-5.952,-5.909,-5.9098,-5.9103,-5.9398,0,-5.7959,-5.8049,-5.8158,-5.819,-5.8232,-5.8354,-5.8286,-5.8339,-5.8274,-5.8241,-5.8378,-5.8371,-5.8427,-5.8463,-5.8402,-5.8628,-5.858,-5.8481,-5.8327,-5.8587,-5.8682,-5.8722,-5.8191,-5.8186,-5.8182,-5.8178,0,0,-5.7616,-5.7743,-5.7656,-5.7764,-5.7794,-5.7655,-5.7791,-5.7804,-5.7834,-5.7858,-5.7771,-5.7917,-5.7915,-5.8089,-5.8165,-5.8188,-5.8221,-5.8133,-5.8464,-5.8497,-5.8526,-5.8629,-5.8671,-5.8171,-5.8169,-5.8168,-5.8167,0,-5.7439,-5.744,-5.7576,-5.7585,-5.7595,-5.7552,-5.7586,-5.7571,-5.7556,-5.769,-5.7572,-5.7646,-5.7766,-5.7778,-5.78,-5.8111,-5.8018,-5.8133,-5.8322,-5.8425,-5.8463,-5.8496,-5.8605,-5.8646,-5.8156,-5.8157,-5.8157,0,-5.7133,-5.7121,-5.718,-5.7241,-5.7246,-5.7333,-5.7155,-5.7255,-5.7318,-5.716,-5.7294,-5.7282,-5.7293,-5.7467,-5.7542,-5.7465,-5.7836,-5.7707,-5.7731,-5.7738,-5.7834,-5.7879,-5.792,-5.7386,-5.7383,-5.7381,0,0,-5.6989,-5.7072,-5.7033,-5.7198,-5.7209,-5.7148,-5.7187,-5.7126,-5.7139,-5.7145,-5.7125,-5.7142,-5.7209,-5.7256,-5.7316,-5.7517,-5.7512,-5.7615,-5.7651,-5.7681,-5.7704,-5.7808,-5.7853,-5.7372,-5.7372,-5.7372,0,0,-5.692,-5.6881,-5.6813,-5.6995,-5.7012,-5.6984,-5.7087,-5.7003,-5.705,-5.7028,-5.693,-5.693,-5.709,-5.7082,-5.6969,-5.726,-5.7109,-5.7135,-5.7259,-5.7304,-5.734,-5.7338,-5.6784,0,0,0,0,0,-5.6702,-5.6885,-5.6824,-5.6844,-5.6921,-5.7018,-5.7027,-5.695,-5.6844,-5.6928,-5.6898,-5.6795,-5.7001,-5.6898,-5.6919,-5.7047,-5.7255,-5.7276,-5.7295,-5.7503,-5.755,-5.7591,0,0,0,0,0,0,-5.6709,-5.6734,-5.6819,-5.68,-5.6816,-5.7011,-5.6814,-5.6798,-5.6833,-5.6811,-5.6804,-5.6795,-5.6731,-5.6881,-5.6902,-5.7024,-5.6777,-5.7263,-5.7281,-5.7297,-5.7519,-5.7558,-5.7591,0,0,0,0,0,-5.6715,-5.6735,-5.6878,-5.6797,-5.6811,-5.6752,-5.6807,-5.6792,-5.6817,-5.6771,-5.6759,-5.6756,-5.6737,-5.6749,-5.6893,-5.7017,-5.6762,-5.677,-5.7275,-5.7289,-5.7301,-5.7538,0,0,0,0,0,0,-5.6719,-5.6722,-5.6879,-5.688,-5.6722,-5.6739,-5.674,-5.6787,-5.6773,-5.6763,-5.6717,-5.67,-5.6743,-5.6751,-5.6761,-5.7019,-5.675,-5.6758,-5.6763,-5.7285,-5.7296,-5.7306,0,0,0,0,0,0,-5.671,-5.6724,-5.6879,-5.6789,-5.6779,-5.6729,-5.6729,-5.684,-5.6775,-5.6719,-5.6704,-5.671,-5.6728,-5.6754,-5.6761,-5.6938,-5.674,-5.6748,-5.6754,-5.6757,-5.7294,-5.7303,0,0,0,0,0,0,-5.6714,-5.6726,-5.6788,-5.678,-5.6771,-5.6781,-5.6825,-5.6908,-5.6697,-5.6722,-5.6676,-5.6666,-5.6734,-5.6739,-5.6762,-5.6937,-5.6938,-5.6741,-5.6746,-5.675,-5.6752,0,0,0,0,0,0,0,-5.6718,-5.6658,-5.687,-5.6774,-5.6765,-5.6893,-5.6894,-5.6894,-5.6695,-5.6686,-5.6678,-5.667,-5.6696,-5.6704,-5.6713,-5.6935,0,0,-5.674,-5.6744,0,0,0,0,0,0,0,0,-5.6651,-5.6656,-5.687,-5.6871,-5.6871,-5.6894,-5.6894,-5.6894,-5.6693,-5.6687,-5.668,-5.6673,-5.6698,-5.6705,-5.6712,0,0,0,0,0,0,0,0,0,0,0,0,0,0,0,-5.687,-5.6871,0,-5.6894,-5.6894,-5.6894,-5.6692,-5.6687,-5.6681,-5.6676,-5.67,-5.6706,-5.6712,0,0,0,0,0,0,0,0,0,0,0,0,0,0,0,0,0,0,0,0,0,0,0,0,0,0,0,0,0,0,0,0,0,0,0,0,0,0,0,0,0,0,0,0,0,0,0,0,0,0,0,0,0,0,0,0,0,0,0,0,0,0,0,0,0,0,0,0,0]}],[{"header":{"parameterUnit":"kt","parameterCategory":2,"dx":1,"dy":1,"la1":30.253999710083008,"la2":30.299108505249023,"lo1":-89.0895004272461,"lo2":-89.04439544677734,"nx":28,"ny":28,"refTime":"2022-10-03T21:00:00:Z","depth":0,"parameterNumber":2,"parameterNumberName":"V-component_of_WINDS"},"data":[-4.5318,-4.5381,-4.5391,-4.5466,-4.5487,-4.554,-4.5561,-4.559,-4.5615,-4.5676,-4.5713,-4.5728,-4.5756,-4.58,-4.5839,-4.5845,-4.586,-4.5873,-4.5877,-4.5809,-4.58,-4.5792,-4.5777,-4.5877,-4.5877,-4.5946,-4.5946,-4.5947,-4.526,-4.5282,-4.5327,-4.5376,-4.5412,-4.5404,-4.5442,-4.5473,-4.552,-4.5551,-4.5589,-4.5644,-4.5688,-4.5712,-4.5756,-4.5782,-4.5781,-4.5793,-4.5791,-4.5794,-4.5722,-4.5707,-4.5794,-4.5794,-4.5794,-4.5794,-4.5793,-4.5793,-4.5158,-4.5196,-4.5232,-4.528,-4.5308,-4.5341,-4.5378,-4.5397,-4.544,-4.5489,-4.5493,-4.5546,-4.5579,-4.5637,-4.5659,-4.5699,-4.5687,-4.5703,-4.5707,-4.5711,-4.5712,-4.5607,-4.5707,-4.5707,-4.5707,-4.5707,-4.5707,0,-4.5085,-4.5092,-4.5136,-4.5183,-4.5219,-4.5256,-4.5292,-4.5315,-4.5332,-4.5366,-4.5416,-4.5447,-4.5506,-4.5552,-4.5596,-4.5616,-4.5611,-4.5613,-4.5624,-4.5621,-4.5612,-4.5615,-4.5494,-4.561,-4.5609,-4.5608,-4.5608,-4.5608,-4.4981,-4.5026,-4.5071,-4.51,-4.5123,-4.5171,-4.5201,-4.5213,-4.5244,-4.529,-4.5322,-4.537,-4.541,-4.5487,-4.5509,-4.5553,-4.555,-4.5593,-4.5557,-4.5552,-4.5548,-4.5545,-4.5548,-4.5599,-4.56,-4.5601,-4.5602,0,-4.492,-4.4939,-4.5013,-4.5054,-4.5065,-4.5111,-4.5145,-4.5183,-4.5199,-4.5254,-4.5267,-4.5292,-4.5341,-4.5356,-4.5416,-4.5422,-4.5491,-4.5489,-4.5478,-4.5478,-4.5515,-4.5511,-4.564,-4.5657,-4.5556,-4.5557,-4.5558,0,-4.4837,-4.4897,-4.4921,-4.4964,-4.5028,-4.5041,-4.5104,-4.5124,-4.5156,-4.52,-4.5198,-4.5238,-4.5253,-4.5295,-4.5305,-4.5365,-4.5377,-4.5384,-4.5386,-4.5384,-4.5382,-4.5399,-4.5393,-4.5391,-4.5391,-4.539,-4.539,0,-4.4739,-4.4824,-4.4893,-4.4915,-4.4966,-4.4997,-4.502,-4.5056,-4.5086,-4.5128,-4.5147,-4.5194,-4.522,-4.5255,-4.5267,-4.5242,-4.5342,-4.531,-4.5349,-4.5349,-4.537,-4.5369,-4.548,-4.5389,-4.5388,-4.5388,-4.5388,0,-4.4676,-4.4721,-4.4819,-4.486,-4.4882,-4.4928,-4.4976,-4.5019,-4.5058,-4.5068,-4.5101,-4.5102,-4.5159,-4.5125,-4.5201,-4.5165,-4.5189,-4.5202,-4.5205,-4.5211,-4.5172,-4.5231,-4.5337,-4.5348,-4.5215,-4.5214,-4.5212,0,-4.4556,-4.4662,-4.4675,-4.4768,-4.4819,-4.4814,-4.4864,-4.49,-4.4918,-4.4962,-4.4981,-4.5032,-4.5011,-4.5029,-4.5065,-4.5086,-4.5133,-4.508,-4.5139,-4.5141,-4.5126,-4.5225,-4.5236,-4.5312,-4.5194,-4.5196,-4.5198,0,-4.4467,-4.4532,-4.4549,-4.4574,-4.4627,-4.467,-4.4729,-4.4783,-4.4811,-4.4854,-4.4901,-4.4974,-4.496,-4.4991,-4.4998,-4.5035,-4.5101,-4.5015,-4.5016,-4.5028,-4.5188,-4.5197,-4.521,-4.5097,-4.5099,-4.5101,-4.5183,0,-4.4362,-4.442,-4.4465,-4.4526,-4.4563,-4.4624,-4.4645,-4.468,-4.4683,-4.4702,-4.4774,-4.481,-4.4865,-4.4885,-4.489,-4.497,-4.4958,-4.4944,-4.4912,-4.4978,-4.5005,-4.5016,-4.487,-4.4869,-4.4868,-4.4868,0,0,-4.4241,-4.4326,-4.434,-4.44,-4.4432,-4.4428,-4.4491,-4.4522,-4.4585,-4.4605,-4.4588,-4.4697,-4.4727,-4.4812,-4.4835,-4.4858,-4.4873,-4.4851,-4.4947,-4.4956,-4.4964,-4.4993,-4.5005,-4.4866,-4.4866,-4.4866,-4.4866,0,-4.4208,-4.4243,-4.4307,-4.434,-4.439,-4.4408,-4.4423,-4.4471,-4.4486,-4.456,-4.4555,-4.46,-4.469,-4.4721,-4.4748,-4.4841,-4.4834,-4.4857,-4.4898,-4.494,-4.4949,-4.4958,-4.4988,-4.4999,-4.4864,-4.4864,-4.4864,0,-4.4122,-4.4159,-4.4194,-4.427,-4.4303,-4.4357,-4.4329,-4.4389,-4.4429,-4.4422,-4.4495,-4.4518,-4.4563,-4.4643,-4.4679,-4.4665,-4.4797,-4.4761,-4.4766,-4.477,-4.4811,-4.4822,-4.4833,-4.4696,-4.4695,-4.4694,0,0,-4.409,-4.4146,-4.4191,-4.4265,-4.4286,-4.4314,-4.4346,-4.4354,-4.4396,-4.4413,-4.4444,-4.4484,-4.4535,-4.4568,-4.4618,-4.4703,-4.4712,-4.4739,-4.4747,-4.4754,-4.4761,-4.4804,-4.4815,-4.4692,-4.4692,-4.4692,0,0,-4.4075,-4.4131,-4.4128,-4.4217,-4.4258,-4.4307,-4.435,-4.4347,-4.4395,-4.439,-4.4405,-4.4417,-4.4492,-4.4515,-4.4479,-4.4606,-4.4575,-4.4584,-4.4589,-4.4599,-4.4607,-4.4599,-4.4455,0,0,0,0,0,-4.4053,-4.4123,-4.412,-4.4139,-4.4237,-4.4309,-4.4321,-4.4336,-4.4312,-4.4346,-4.437,-4.4362,-4.4498,-4.4466,-4.4483,-4.4524,-4.4659,-4.4665,-4.467,-4.4696,-4.4707,-4.4716,0,0,0,0,0,0,-4.4061,-4.4083,-4.4118,-4.417,-4.4192,-4.4306,-4.4269,-4.4275,-4.4309,-4.4306,-4.4358,-4.4364,-4.4377,-4.4458,-4.4473,-4.4511,-4.445,-4.4661,-4.4666,-4.4671,-4.47,-4.4709,-4.4716,0,0,0,0,0,-4.4067,-4.4085,-4.4239,-4.4169,-4.4188,-4.4225,-4.4267,-4.4272,-4.4298,-4.4337,-4.4343,-4.4306,-4.4378,-4.4392,-4.4467,-4.4504,-4.4439,-4.4445,-4.4665,-4.4669,-4.4672,-4.4704,0,0,0,0,0,0,-4.4071,-4.4089,-4.4243,-4.4249,-4.4145,-4.4218,-4.4231,-4.4268,-4.4327,-4.4333,-4.4286,-4.4283,-4.4379,-4.439,-4.44,-4.4501,-4.4431,-4.4436,-4.444,-4.4668,-4.4671,-4.4673,0,0,0,0,0,0,-4.4079,-4.4094,-4.4246,-4.4215,-4.4217,-4.4213,-4.4224,-4.429,-4.4327,-4.4272,-4.4272,-4.4284,-4.4363,-4.4389,-4.4397,-4.45,-4.4424,-4.443,-4.4433,-4.4436,-4.467,-4.4672,0,0,0,0,0,0,-4.4086,-4.4099,-4.4213,-4.4215,-4.4218,-4.4289,-4.4272,-4.4371,-4.4302,-4.4269,-4.4296,-4.4293,-4.4362,-4.437,-4.4395,-4.4495,-4.4499,-4.4424,-4.4428,-4.4431,-4.4432,0,0,0,0,0,0,0,-4.4091,-4.4001,-4.4206,-4.4216,-4.4218,-4.4307,-4.4309,-4.4311,-4.4301,-4.4299,-4.4296,-4.4294,-4.4393,-4.4399,-4.4405,-4.449,0,0,-4.4424,-4.4426,0,0,0,0,0,0,0,0,-4.3996,-4.4,-4.4206,-4.4207,-4.4209,-4.4308,-4.4309,-4.4311,-4.4301,-4.4299,-4.4297,-4.4295,-4.4394,-4.4399,-4.4404,0,0,0,0,0,0,0,0,0,0,0,0,0,0,0,-4.4206,-4.4207,0,-4.4308,-4.4309,-4.431,-4.43,-4.4299,-4.4297,-4.4296,-4.4396,-4.44,-4.4404,0,0,0,0,0,0,0,0,0,0,0,0,0,0,0,0,0,0,0,0,0,0,0,0,0,0,0,0,0,0,0,0,0,0,0,0,0,0,0,0,0,0,0,0,0,0,0,0,0,0,0,0,0,0,0,0,0,0,0,0,0,0,0,0,0,0,0,0,0]}]]]